Location: Saint-Palais-sur-Mer
(45.6429°N, 1.0859°W)
Time: 00:36:36
(UTC+01:00)

Tiros 1 despin weight - Pass Details

Date: 14 February 2026
Orbit: 556 x 593 km, 48.2° (Epoch: 13 March)

Event Time Altitude Azimuth Distance (km) Brightness Sun altitude
Rises 00:36:09 0° 281° (W) 2,746 - -56.2°
Reaches altitude 10° 00:39:21 10° 255° (WSW) 1,854 - -56.4°
Maximum altitude 00:41:30 14° 224° (SW) 1,624 - -56.5°
Drops below altitude 10° 00:43:41 10° 193° (SSW) 1,859 - -56.6°
Sets 00:46:54 0° 168° (SSE) 2,761 - -56.8°
